SHIJIAN-20 (SJ-20)

Last updated on Aug. 10, 2020, 5:33 a.m. UTC

1 44910U 19097A   20222.91940875 -.00000355  00000-0  00000-0 0  9999
2 44910   0.3368  94.9290 0007967 130.9954 189.3058  1.00276302  2268
UTC
Height (km)
Latitude
Longitude
Inclination
Orbital Period
UTC large
Height (km)
Speed (km/s)
/
Latitude / Longitude
Inclination (degrees)
Orbital Period (minutes)
Azimuth
Elevation
Range (km)
Doppler Factor
iOS Compass Heading
iOS Angle

Next 30 passes for location: Hong Kong

Rise time Rise Azimuth (degrees) Set time Set Azimuth (degrees) Duration Max altitude (degrees)

No matching passes for this satellites